Bookmark and Share
Track history (hours):
 

Akebono

Last reported at 2014-Apr-23 23:33 UTC. Time now 2014-Apr-24 00:25 UTC.
Position N 35°29' E 139°42'.

Length 33 m; draft 4.4 m.

Type: Tug. MMSI: 431000233.

NotesDate/timePositionNaut miles runAvg speedWind from/ knotsBaromVisibWave heightAir tempDewpointWater temp
2014-Apr-23 23:33N 35°29' E 139°42'0 0.1
2014-Apr-23 22:33N 35°29' E 139°42'1 0.9
2014-Apr-23 21:33N 35°28' E 139°42'3 0.2
2014-Apr-23 09:17N 35°27' E 139°39'0 0.0
2014-Apr-23 08:33N 35°27' E 139°39'0 0.0
2014-Apr-23 07:33N 35°27' E 139°39'0 0.0
2014-Apr-23 06:33N 35°27' E 139°39'1 1.0
2014-Apr-23 05:33N 35°27' E 139°41'1 1.1
2014-Apr-23 04:33N 35°27' E 139°39'0 0.0
2014-Apr-23 03:34N 35°27' E 139°39'0 0.0
2014-Apr-23 02:33N 35°27' E 139°39'1 0.8
2014-Apr-23 01:33N 35°27' E 139°40'1 0.8
2014-Apr-23 00:34N 35°27' E 139°39'0 0.0
2014-Apr-22 23:33N 35°27' E 139°39'0 0.0
2014-Apr-22 22:33N 35°27' E 139°39'0 0.0
2014-Apr-21 22:31N 35°27' E 139°39'0 0.0
2014-Apr-21 21:34N 35°27' E 139°39'2 1.6
2014-Apr-21 20:34N 35°29' E 139°39'2 1.5
2014-Apr-21 19:33N 35°28' E 139°40'0 0.0
2014-Apr-21 18:33N 35°28' E 139°40'1 1.5
2014-Apr-21 17:34N 35°26' E 139°41'2 1.6
2014-Apr-21 16:33N 35°27' E 139°42'0 0.0
2014-Apr-21 15:34N 35°27' E 139°42'0 0.0
2014-Apr-21 14:34N 35°27' E 139°42'1 0.6
2014-Apr-21 13:34N 35°28' E 139°42'1 1.0
2014-Apr-21 12:34N 35°28' E 139°44'5 4.7
2014-Apr-21 11:33N 35°24' E 139°41'1 0.9
2014-Apr-21 10:33N 35°23' E 139°40'0 0.0
2014-Apr-21 09:34N 35°23' E 139°40'4 3.6
2014-Apr-21 08:33N 35°27' E 139°40'2 2.3
2014-Apr-21 07:33N 35°25' E 139°42'1 1.3
2014-Apr-21 06:34N 35°23' E 139°41'4 3.8
2014-Apr-21 05:33N 35°27' E 139°39'0 0.0
2014-Apr-21 04:33N 35°27' E 139°39'0 0.0
2014-Apr-21 03:33N 35°27' E 139°39'0 0.0
2014-Apr-21 02:33N 35°27' E 139°39'3 3.2
2014-Apr-21 01:33N 35°24' E 139°39'0 0.3
2014-Apr-21 00:33N 35°24' E 139°39'3 3.3
2014-Apr-20 23:33N 35°27' E 139°39'0 0.0
2014-Apr-20 22:33N 35°27' E 139°39'0 0.0
2014-Apr-20 07:11N 35°27' E 139°39'0 0.0
2014-Apr-20 06:33N 35°27' E 139°39'0 0.0
2014-Apr-20 05:33N 35°27' E 139°39'0 0.5
2014-Apr-20 04:33N 35°27' E 139°40'4 3.5
2014-Apr-20 03:33N 35°24' E 139°38'0 0.0
2014-Apr-20 02:33N 35°24' E 139°38'3 3.0
2014-Apr-20 01:33N 35°23' E 139°41'0 0.4
2014-Apr-20 00:33N 35°23' E 139°41'5 4.6
2014-Apr-19 23:34N 35°27' E 139°40'1 0.6
2014-Apr-19 22:33N 35°27' E 139°39'0 0.0
2014-Apr-19 09:09N 35°27' E 139°39'2 3.4
2014-Apr-19 08:34N 35°28' E 139°42'1 0.7
2014-Apr-19 07:33N 35°27' E 139°42'0 0.0
2014-Apr-19 06:33N 35°27' E 139°42'2 1.9
2014-Apr-19 05:33N 35°27' E 139°40'0 0.5
2014-Apr-19 04:33N 35°27' E 139°40'1 0.8
2014-Apr-19 03:33N 35°27' E 139°39'0 0.0
2014-Apr-19 02:33N 35°27' E 139°39'0 0.0
2014-Apr-19 01:33N 35°27' E 139°39'0 0.0
2014-Apr-19 00:33N 35°27' E 139°39'0 0.0
2014-Apr-18 23:33N 35°27' E 139°39'0 0.0
2014-Apr-18 22:33N 35°27' E 139°39'2 1.5
2014-Apr-18 21:33N 35°27' E 139°41'1 1.5
2014-Apr-18 20:33N 35°27' E 139°40'1 0.1
2014-Apr-18 12:33N 35°27' E 139°41'3 3.1
2014-Apr-18 11:34N 35°24' E 139°41'1 1.4
2014-Apr-18 10:33N 35°23' E 139°41'0 0.2
2014-Apr-18 09:33N 35°23' E 139°41'3 2.5
2014-Apr-18 08:33N 35°25' E 139°41'2 1.9
2014-Apr-18 07:33N 35°27' E 139°39'0 0.0
2014-Apr-18 06:33N 35°27' E 139°39'0 0.0
2014-Apr-18 05:34N 35°27' E 139°39'0 0.0
2014-Apr-18 04:33N 35°27' E 139°39'0 0.0
2014-Apr-18 03:33N 35°27' E 139°39'0 0.0
2014-Apr-18 02:33N 35°27' E 139°39'2 2.0
2014-Apr-18 01:33N 35°27' E 139°42'3 2.9
2014-Apr-18 00:33N 35°29' E 139°44'4 3.6
2014-Apr-17 23:33N 35°28' E 139°40'0 0.4
2014-Apr-17 22:33N 35°28' E 139°40'2 2.0
2014-Apr-17 21:33N 35°27' E 139°43'2 2.3
2014-Apr-17 20:33N 35°27' E 139°40'0 0.0
2014-Apr-17 07:11N 35°27' E 139°39'0 0.0
2014-Apr-17 06:33N 35°27' E 139°39'0 0.0
2014-Apr-17 05:33N 35°27' E 139°39'0 0.0
2014-Apr-17 04:33N 35°27' E 139°39'0 0.0
2014-Apr-17 03:33N 35°27' E 139°39'0 0.0
2014-Apr-17 02:33N 35°27' E 139°39'0 0.0
2014-Apr-17 01:33N 35°27' E 139°39'0 0.0
2014-Apr-17 00:33N 35°27' E 139°39'0 0.0
2014-Apr-16 23:33N 35°27' E 139°39'2 1.7
2014-Apr-16 22:33N 35°28' E 139°41'4 3.5
2014-Apr-16 21:33N 35°26' E 139°44'4 4.1
2014-Apr-16 20:33N 35°27' E 139°40'0 0.0
2014-Apr-16 08:33N 35°27' E 139°40'5 5.5
2014-Apr-16 07:33N 35°28' E 139°46'1 1.2
2014-Apr-16 06:34N 35°28' E 139°48'1 0.8
2014-Apr-16 05:33N 35°28' E 139°47'6 5.9
2014-Apr-16 04:33N 35°27' E 139°40'1 0.8
2014-Apr-16 03:33N 35°27' E 139°40'0 0.2
2014-Apr-16 02:34N 35°27' E 139°39'0 0.0
2014-Apr-16 01:33N 35°27' E 139°39'0 0.1
2014-Apr-16 00:33N 35°27' E 139°39'0 0.0
2014-Apr-15 23:33N 35°27' E 139°39'1 1.3
2014-Apr-15 22:33N 35°27' E 139°41'2 1.8
2014-Apr-15 21:33N 35°26' E 139°43'3 3.0
2014-Apr-15 20:33N 35°27' E 139°40'0 0.1
2014-Apr-15 19:33N 35°27' E 139°39'1 0.1
2014-Apr-15 09:34N 35°27' E 139°40'1 1.3
2014-Apr-15 08:34N 35°27' E 139°42'1 1.3
2014-Apr-15 07:34N 35°27' E 139°40'1 0.7
2014-Apr-15 06:34N 35°27' E 139°39'0 0.0
2014-Apr-15 05:34N 35°27' E 139°39'0 0.0
2014-Apr-15 03:34N 35°27' E 139°39'4 3.5
2014-Apr-15 02:34N 35°28' E 139°44'1 1.2
2014-Apr-15 01:34N 35°29' E 139°45'1 0.8
2014-Apr-15 00:34N 35°28' E 139°46'1 1.3
2014-Apr-14 23:34N 35°29' E 139°44'1 0.8
2014-Apr-14 22:34N 35°29' E 139°45'2 1.8
2014-Apr-14 21:34N 35°30' E 139°43'4 4.2
2014-Apr-14 20:34N 35°27' E 139°39'2 0.2
2014-Apr-14 08:33N 35°28' E 139°42'1 0.9
2014-Apr-14 07:33N 35°27' E 139°43'2 2.2
2014-Apr-14 06:33N 35°27' E 139°40'1 0.6
2014-Apr-14 05:33N 35°27' E 139°39'  

Dump ship's entire track history

sailing weather and tide predictions

Akebono — JG5644 — position and weather